Weather History for Waterloo, IA

Change the Weather History Date:

Thursday, March 6, 2014

  Actual Average Record
Temperature  
Mean Temperature 22 °F 31 °F  
Max Temperature 26 °F 40 °F 72 °F (2000)
Min Temperature 18 °F 22 °F -11 °F (1960)
Degree Days  
Heating Degree Days 43 34  
Month to date heating degree days 341 209  
Since 1 July heating degree days 6749 5628  
Cooling Degree Days 0 0  
Month to date cooling degree days 0 0  
Year to date cooling degree days 0 0  
Moisture  
Dew Point 15 °F    
Average Humidity 76    
Maximum Humidity 84    
Minimum Humidity 68    
Precipitation  
Precipitation 0.00 in 0.05 in 1.07 in (1946)
Month to date precipitation 0.31 0.32  
Year to date precipitation 2.94 2.14  
Snow  
Snow 0.00 in 0.10 in 5.70 in (1995)
Month to date snowfall 4.1 1.1  
Since 1 July snowfall 55.9 30.0  
Snow Depth 5.00 in    
Sea Level Pressure  
Sea Level Pressure 30.20 in    
Wind  
Wind Speed 13 mph (SSE)    
Max Wind Speed 20 mph    
Max Gust Speed 25 mph    
Visibility 8 miles    
Events      
T = Trace of Precipitation, MM = Missing Value Source: NWS Daily Summary

Daily Weather History Graph

Daily Weather History Graph

Search for Another Location

Airport:

Trip Planner

Search our weather history database for the weather conditions in past years. The results will help you decide how hot, cold, wet, or windy it might be!

Date:

Astronomy

Mar. 06, 2014 Rise Set
Actual Time 6:36 AM CST 6:05 PM CST
Civil Twilight 6:08 AM CST 6:33 PM CST
Nautical Twilight 5:36 AM CST 7:06 PM CST
Astronomical Twilight 5:03 AM CST 7:39 PM CST
Moon 9:37 AM CST (3/6) No Moon Set
Length of Visible Light 12h 24m
Length of Day
11h 28m
Waxing Crescent, 32% of the Moon is Illuminated
Mar 6
Waxing Crescent
Mar 8
First Quarter
Mar 16
Full
Mar 23
Last Quarter
Mar 30
New

Hourly Weather History & Observations

Time (CST) Temp. Windchill Dew Point Humidity Pressure Visibility Wind Dir Wind Speed Gust Speed Precip Events Conditions
12:54 AM 18.0 °F 7.7 °F 10.9 °F 74% 30.41 in 10.0 mi ESE 8.1 mph - N/A   Overcast
1:54 AM 18.0 °F 6.1 °F 10.0 °F 71% 30.39 in 10.0 mi ESE 10.4 mph - N/A   Overcast
2:54 AM 18.0 °F 6.1 °F 10.0 °F 71% 30.38 in 10.0 mi SE 10.4 mph - N/A   Overcast
3:54 AM 18.0 °F 6.9 °F 10.9 °F 74% 30.36 in 10.0 mi SE 9.2 mph - N/A   Overcast
4:54 AM 18.0 °F 9.8 °F 12.0 °F 78% 30.35 in 10.0 mi ESE 5.8 mph - N/A   Overcast
5:43 AM 18.0 °F 6.9 °F 12.0 °F 78% 30.29 in 10.0 mi ESE 9.2 mph - N/A   Overcast
5:54 AM 18.0 °F 6.9 °F 12.0 °F 78% 30.34 in 10.0 mi SE 9.2 mph - N/A   Overcast
6:18 AM 18.0 °F 6.1 °F 12.0 °F 78% 30.28 in 10.0 mi SE 10.4 mph - N/A   Overcast
6:29 AM 18.0 °F 6.9 °F 12.0 °F 78% 30.28 in 10.0 mi SE 9.2 mph - N/A   Overcast
6:54 AM 18.0 °F 6.9 °F 12.9 °F 81% 30.33 in 10.0 mi SE 9.2 mph - N/A   Overcast
7:54 AM 18.0 °F 6.1 °F 12.9 °F 81% 30.32 in 10.0 mi SSE 10.4 mph - N/A   Overcast
8:54 AM 18.0 °F 4.2 °F 12.9 °F 81% 30.30 in 7.0 mi SSE 13.8 mph - N/A   Overcast
9:54 AM 18.0 °F 3.6 °F 14.0 °F 84% 30.28 in 7.0 mi SSE 15.0 mph 21.9 mph N/A   Overcast
10:54 AM 19.0 °F 4.5 °F 15.1 °F 85% 30.26 in 8.0 mi SSE 16.1 mph - N/A   Scattered Clouds
11:09 AM 19.0 °F 5.0 °F 15.1 °F 85% 30.20 in 7.0 mi SSE 15.0 mph - N/A   Mostly Cloudy
11:18 AM 19.0 °F 5.0 °F 15.1 °F 85% 30.20 in 7.0 mi SSE 15.0 mph - N/A   Scattered Clouds
11:54 AM 21.0 °F 8.6 °F 16.0 °F 81% 30.25 in 5.0 mi SSE 12.7 mph - N/A   Haze
12:54 PM 21.9 °F 9.2 °F 17.1 °F 82% 30.22 in 9.0 mi SSE 13.8 mph - N/A   Clear
1:54 PM 24.1 °F 12.5 °F 18.0 °F 77% 30.18 in 9.0 mi SSE 12.7 mph - N/A   Clear
2:54 PM 25.0 °F 13.6 °F 18.0 °F 75% 30.14 in 9.0 mi South 12.7 mph - N/A   Clear
3:54 PM 25.0 °F 13.6 °F 18.0 °F 75% 30.12 in 7.0 mi SSE 12.7 mph - N/A   Clear
4:54 PM 26.1 °F 14.0 °F 18.0 °F 71% 30.07 in 7.0 mi SSE 15.0 mph - N/A   Clear
5:54 PM 25.0 °F 11.7 °F 18.0 °F 75% 30.05 in 7.0 mi SSE 17.3 mph 23.0 mph N/A   Clear
6:54 PM 25.0 °F 12.6 °F 18.0 °F 75% 30.05 in 8.0 mi SSE 15.0 mph - N/A   Clear
7:54 PM 24.1 °F 12.5 °F 18.0 °F 77% 30.02 in 7.0 mi SSE 12.7 mph - N/A   Clear
8:54 PM 24.1 °F 11.0 °F 17.1 °F 75% 30.00 in 7.0 mi SSE 16.1 mph - N/A   Clear
9:54 PM 24.1 °F 11.5 °F 17.1 °F 75% 29.99 in 8.0 mi SSE 15.0 mph - N/A   Clear
10:54 PM 24.1 °F 12.5 °F 18.0 °F 77% 29.98 in 7.0 mi SSE 12.7 mph - N/A   Clear
11:54 PM 24.1 °F 12.0 °F 19.0 °F 81% 29.96 in 6.0 mi South 13.8 mph - N/A   Haze